| time (UTC) | temp F | wind direction | speed MPH | gust MPH | rain 1hr in | rain 24hr in | rain mn in | humidity % | barometer mb |
| 20260905032026 | 74 | 86 | 0.0 | 4.0 | 0.00 | 0.00 | 0.00 | 82 | 1012.9 |
| 20260905031550 | 74 | 84 | 1.0 | 4.0 | 0.00 | 0.00 | 0.00 | 82 | 1012.9 |
| 20260905031105 | 74 | 137 | 0.0 | 3.0 | 0.00 | 0.00 | 0.00 | 82 | 1012.8 |
| 20260905030516 | 75 | 90 | 0.0 | 7.0 | 0.00 | 0.00 | 0.00 | 82 | 1012.7 |
| 20260905030037 | 75 | 93 | 1.0 | 7.0 | 0.00 | 0.00 | 0.00 | 81 | 1012.7 |
| 20260905025555 | 75 | 89 | 1.0 | 4.0 | 0.00 | 0.00 | 0.00 | 81 | 1012.7 |
| 20260905025005 | 76 | 134 | 0.0 | 4.0 | 0.00 | 0.00 | 0.00 | 80 | 1012.6 |
| 20260905024526 | 76 | 53 | 1.0 | 6.0 | 0.00 | 0.00 | 0.00 | 80 | 1012.5 |
| 20260905024045 | 76 | 101 | 1.0 | 8.0 | 0.00 | 0.00 | 0.00 | 80 | 1012.4 |
| 20260905023525 | 76 | 133 | 2.0 | 6.0 | 0.00 | 0.00 | 0.00 | 80 | 1012.4 |
| 20260905023109 | 77 | 174 | 2.0 | 6.0 | 0.00 | 0.00 | 0.00 | 80 | 1012.3 |
| 20260905022513 | 77 | 74 | 2.0 | 5.0 | 0.00 | 0.00 | 0.00 | 80 | 1012.2 |
| 20260905022050 | 77 | 86 | 1.0 | 5.0 | 0.00 | 0.00 | 0.00 | 80 | 1012.1 |
| 20260905021527 | 77 | 83 | 0.0 | 4.0 | 0.00 | 0.00 | 0.00 | 81 | 1012.1 |
| 20260905021003 | 77 | 92 | 0.0 | 3.0 | 0.00 | 0.00 | 0.00 | 81 | 1012.0 |
| 20260905020532 | 77 | 92 | 1.0 | 5.0 | 0.00 | 0.00 | 0.00 | 81 | 1012.0 |
| 20260905020109 | 77 | 73 | 0.0 | 5.0 | 0.00 | 0.00 | 0.00 | 81 | 1011.9 |
| 20260905015520 | 76 | 111 | 0.0 | 4.0 | 0.00 | 0.00 | 0.00 | 81 | 1011.8 |
| 20260905015102 | 76 | 84 | 0.0 | 3.0 | 0.00 | 0.00 | 0.00 | 82 | 1011.8 |
| 20260905014526 | 77 | 87 | 0.0 | 2.0 | 0.00 | 0.00 | 0.00 | 82 | 1011.8 |
| 20260905014056 | 77 | 87 | 0.0 | 2.0 | 0.00 | 0.00 | 0.00 | 81 | 1011.8 |
| 20260905013506 | 77 | 87 | 0.0 | 2.0 | 0.00 | 0.00 | 0.00 | 81 | 1011.7 |
| 20260905013032 | 77 | 90 | 0.0 | 2.0 | 0.00 | 0.00 | 0.00 | 81 | 1011.8 |
| 20260905012610 | 77 | 90 | 0.0 | 2.0 | 0.00 | 0.00 | 0.00 | 80 | 1011.8 |
| 20260905012020 | 78 | 91 | 0.0 | 2.0 | 0.00 | 0.00 | 0.00 | 79 | 1011.6 |
| 20260905011604 | 78 | 91 | 0.0 | 2.0 | 0.00 | 0.00 | 0.00 | 79 | 1011.5 |
| 20260905011029 | 78 | 91 | 0.0 | 0.0 | 0.00 | 0.00 | 0.00 | 78 | 1011.6 |
| 20260905010558 | 79 | 91 | 0.0 | 2.0 | 0.00 | 0.00 | 0.00 | 78 | 1011.5 |
| 20260905010039 | 79 | 91 | 0.0 | 2.0 | 0.00 | 0.00 | 0.00 | 77 | 1011.5 |
| 20260905005503 | 79 | 90 | 0.0 | 1.0 | 0.00 | 0.00 | 0.00 | 77 | 1011.4 |
| 20260905005046 | 80 | 90 | 0.0 | 3.0 | 0.00 | 0.00 | 0.00 | 76 | 1011.3 |
| 20260905004507 | 80 | 90 | 0.0 | 3.0 | 0.00 | 0.00 | 0.00 | 76 | 1011.3 |
| 20260905004037 | 80 | 96 | 0.0 | 2.0 | 0.00 | 0.00 | 0.00 | 76 | 1011.3 |
| 20260905003558 | 81 | 96 | 0.0 | 3.0 | 0.00 | 0.00 | 0.00 | 75 | 1011.3 |
| 20260905003012 | 81 | 96 | 0.0 | 4.0 | 0.00 | 0.00 | 0.00 | 74 | 1011.3 |
| 20260905002549 | 81 | 96 | 0.0 | 4.0 | 0.00 | 0.00 | 0.00 | 74 | 1011.4 |
| 20260905002024 | 82 | 100 | 0.0 | 2.0 | 0.00 | 0.00 | 0.00 | 74 | 1011.3 |
| 20260905001544 | 82 | 103 | 0.0 | 3.0 | 0.00 | 0.00 | 0.00 | 73 | 1011.2 |
| 20260905001103 | 83 | 99 | 0.0 | 3.0 | 0.00 | 0.00 | 0.00 | 73 | 1011.2 |
| 20260905000542 | 83 | 109 | 1.0 | 3.0 | 0.00 | 0.00 | 0.00 | 72 | 1011.2 |
| 20260905000058 | 84 | 119 | 0.0 | 2.0 | 0.00 | 0.00 | 0.00 | 73 | 1011.1 |
| 20260904235507 | 84 | 125 | 1.0 | 3.0 | 0.00 | 0.00 | 0.00 | 71 | 1011.1 |
| 20260904235049 | 85 | 98 | 1.0 | 4.0 | 0.00 | 0.00 | 0.00 | 71 | 1011.1 |
| 20260904234613 | 85 | 131 | 0.0 | 4.0 | 0.00 | 0.00 | 0.00 | 71 | 1011.1 |
| 20260904234019 | 86 | 135 | 1.0 | 6.0 | 0.00 | 0.00 | 0.00 | 69 | 1011.1 |
| 20260904233542 | 86 | 97 | 1.0 | 6.0 | 0.00 | 0.00 | 0.00 | 70 | 1011.0 |
| 20260904233107 | 86 | 138 | 1.0 | 3.0 | 0.00 | 0.00 | 0.00 | 69 | 1011.0 |
| 20260904232517 | 87 | 122 | 2.0 | 3.0 | 0.00 | 0.00 | 0.00 | 68 | 1010.9 |
| 20260904232055 | 87 | 109 | 0.0 | 1.0 | 0.00 | 0.00 | 0.00 | 70 | 1011.0 |
| 20260904231504 | 87 | 109 | 0.0 | 3.0 | 0.00 | 0.00 | 0.00 | 69 | 1010.9 |
| 20260904231024 | 87 | 108 | 0.0 | 3.0 | 0.00 | 0.00 | 0.00 | 69 | 1010.9 |
| 20260904230608 | 87 | 61 | 0.0 | 3.0 | 0.00 | 0.00 | 0.00 | 69 | 1010.8 |
| 20260904230020 | 87 | 137 | 1.0 | 3.0 | 0.00 | 0.00 | 0.00 | 70 | 1010.7 |
| 20260904225511 | 87 | 142 | 0.0 | 2.0 | 0.00 | 0.00 | 0.00 | 68 | 1010.8 |
| 20260904225032 | 87 | 155 | 0.0 | 3.0 | 0.00 | 0.00 | 0.00 | 71 | 1010.7 |
| 20260904224551 | 87 | 154 | 0.0 | 4.0 | 0.00 | 0.00 | 0.00 | 69 | 1010.7 |
| 20260904224003 | 87 | 115 | 1.0 | 4.0 | 0.00 | 0.00 | 0.00 | 68 | 1010.6 |
| 20260904223540 | 87 | 83 | 0.0 | 4.0 | 0.00 | 0.00 | 0.00 | 72 | 1010.7 |
| 20260904223058 | 87 | 123 | 0.0 | 4.0 | 0.00 | 0.00 | 0.00 | 71 | 1010.7 |
| 20260904222523 | 87 | 117 | 1.0 | 4.0 | 0.00 | 0.00 | 0.00 | 69 | 1010.6 |
| 20260904222048 | 87 | 111 | 0.0 | 3.0 | 0.00 | 0.00 | 0.00 | 71 | 1010.6 |
| 20260904221609 | 87 | 115 | 0.0 | 4.0 | 0.00 | 0.00 | 0.00 | 70 | 1010.5 |
| 20260904221018 | 88 | 155 | 0.0 | 4.0 | 0.00 | 0.00 | 0.00 | 69 | 1010.5 |
| 20260904220538 | 88 | 213 | 0.0 | 1.0 | 0.00 | 0.00 | 0.00 | 70 | 1010.5 |
| 20260904220011 | 88 | 121 | 0.0 | 4.0 | 0.00 | 0.00 | 0.00 | 70 | 1010.4 |
| 20260904215537 | 88 | 121 | 1.0 | 4.0 | 0.00 | 0.00 | 0.00 | 70 | 1010.3 |
| 20260904215015 | 88 | 292 | 1.0 | 4.0 | 0.00 | 0.00 | 0.00 | 71 | 1010.2 |
| 20260904214549 | 88 | 132 | 1.0 | 3.0 | 0.00 | 0.00 | 0.00 | 69 | 1010.2 |
| 20260904214110 | 88 | 123 | 0.0 | 4.0 | 0.00 | 0.00 | 0.00 | 70 | 1010.2 |
| 20260904213530 | 88 | 99 | 1.0 | 4.0 | 0.00 | 0.00 | 0.00 | 72 | 1010.2 |
| 20260904213014 | 87 | 128 | 1.0 | 4.0 | 0.00 | 0.00 | 0.00 | 71 | 1010.2 |
| 20260904212536 | 87 | 112 | 0.0 | 4.0 | 0.00 | 0.00 | 0.00 | 73 | 1010.2 |
| 20260904212009 | 87 | 170 | 0.0 | 4.0 | 0.00 | 0.00 | 0.00 | 72 | 1010.3 |
| 20260904211531 | 88 | 132 | 1.0 | 6.0 | 0.00 | 0.00 | 0.00 | 70 | 1010.3 |
| 20260904211055 | 88 | 162 | 1.0 | 6.0 | 0.00 | 0.00 | 0.00 | 72 | 1010.3 |
| 20260904210531 | 88 | 97 | 1.0 | 3.0 | 0.00 | 0.00 | 0.00 | 72 | 1010.3 |
| 20260904210056 | 88 | 134 | 1.0 | 4.0 | 0.00 | 0.00 | 0.00 | 71 | 1010.4 |
| 20260904205506 | 88 | 192 | 1.0 | 5.0 | 0.00 | 0.00 | 0.00 | 73 | 1010.5 |
| 20260904205025 | 88 | 86 | 1.0 | 5.0 | 0.00 | 0.00 | 0.00 | 72 | 1010.4 |
| 20260904204547 | 88 | 155 | 0.0 | 3.0 | 0.00 | 0.00 | 0.00 | 73 | 1010.4 |
| 20260904204021 | 87 | 70 | 1.0 | 6.0 | 0.00 | 0.00 | 0.00 | 75 | 1010.5 |
| 20260904203601 | 87 | 131 | 2.0 | 6.0 | 0.00 | 0.00 | 0.00 | 72 | 1010.4 |
| 20260904203049 | 87 | 154 | 1.0 | 6.0 | 0.00 | 0.00 | 0.00 | 72 | 1010.4 |
| 20260904202512 | 87 | 198 | 2.0 | 6.0 | 0.00 | 0.00 | 0.00 | 73 | 1010.5 |
| 20260904202034 | 87 | 155 | 1.0 | 6.0 | 0.00 | 0.00 | 0.00 | 74 | 1010.4 |
| 20260904201600 | 87 | 119 | 1.0 | 5.0 | 0.00 | 0.00 | 0.00 | 75 | 1010.4 |
| 20260904201500 | 87 | 119 | 1.0 | 5.0 | 0.00 | 0.00 | 0.00 | 72 | 1010.4 |
| 20260904201029 | 87 | 165 | 0.0 | 4.0 | 0.00 | 0.00 | 0.00 | 75 | 1010.4 |
| 20260904200508 | 86 | 90 | 1.0 | 6.0 | 0.00 | 0.00 | 0.00 | 76 | 1010.4 |
| 20260904200110 | 86 | 97 | 2.0 | 5.0 | 0.00 | 0.00 | 0.00 | 73 | 1010.4 |
| 20260904195516 | 86 | 83 | 2.0 | 5.0 | 0.00 | 0.01 | 0.00 | 74 | 1010.4 |
| 20260904195038 | 86 | 155 | 2.0 | 6.0 | 0.00 | 0.01 | 0.00 | 75 | 1010.4 |
| 20260904194601 | 86 | 126 | 2.0 | 5.0 | 0.00 | 0.01 | 0.00 | 75 | 1010.5 |
| 20260904194032 | 86 | 105 | 1.0 | 6.0 | 0.00 | 0.01 | 0.00 | 76 | 1010.5 |
| 20260904193513 | 86 | 133 | 1.0 | 6.0 | 0.00 | 0.01 | 0.00 | 77 | 1010.5 |
| 20260904193103 | 86 | 101 | 2.0 | 6.0 | 0.00 | 0.01 | 0.00 | 77 | 1010.5 |
| 20260904192519 | 86 | 103 | 1.0 | 6.0 | 0.00 | 0.01 | 0.00 | 75 | 1010.5 |
| 20260904192047 | 86 | 148 | 1.0 | 4.0 | 0.00 | 0.01 | 0.00 | 74 | 1010.5 |
| 20260904191607 | 86 | 133 | 1.0 | 4.0 | 0.00 | 0.01 | 0.00 | 76 | 1010.5 |
| 20260904191027 | 86 | 211 | 1.0 | 6.0 | 0.00 | 0.01 | 0.00 | 75 | 1010.5 |
| 20260904190548 | 86 | 252 | 1.0 | 6.0 | 0.00 | 0.01 | 0.00 | 78 | 1010.5 |
| 20260904190011 | 86 | 87 | 1.0 | 9.0 | 0.00 | 0.02 | 0.00 | 76 | 1010.5 |
| 20260904185554 | 86 | 140 | 1.0 | 6.0 | 0.00 | 0.02 | 0.00 | 75 | 1010.5 |
| 20260904185028 | 86 | 94 | 2.0 | 6.0 | 0.00 | 0.02 | 0.00 | 75 | 1010.5 |
| 20260904184550 | 86 | 208 | 1.0 | 4.0 | 0.00 | 0.02 | 0.00 | 77 | 1010.5 |
| 20260904184026 | 86 | 152 | 2.0 | 6.0 | 0.00 | 0.02 | 0.00 | 76 | 1010.5 |
| 20260904183552 | 86 | 96 | 2.0 | 7.0 | 0.00 | 0.02 | 0.00 | 77 | 1010.5 |
| 20260904183002 | 86 | 111 | 2.0 | 7.0 | 0.00 | 0.02 | 0.00 | 75 | 1010.5 |
| 20260904182535 | 87 | 155 | 2.0 | 5.0 | 0.00 | 0.02 | 0.00 | 75 | 1010.5 |
| 20260904182001 | 87 | 113 | 0.0 | 8.0 | 0.00 | 0.02 | 0.00 | 76 | 1010.5 |
| 20260904181526 | 87 | 190 | 2.0 | 8.0 | 0.00 | 0.02 | 0.00 | 76 | 1010.4 |
| 20260904181003 | 87 | 165 | 0.0 | 4.0 | 0.00 | 0.02 | 0.00 | 77 | 1010.4 |
| 20260904180529 | 87 | 203 | 1.0 | 7.0 | 0.00 | 0.02 | 0.00 | 76 | 1010.4 |
| 20260904180047 | 87 | 103 | 0.0 | 4.0 | 0.00 | 0.02 | 0.00 | 78 | 1010.4 |
| 20260904175532 | 86 | 94 | 0.0 | 4.0 | 0.00 | 0.02 | 0.00 | 78 | 1010.4 |
| 20260904175009 | 86 | 300 | 0.0 | 6.0 | 0.00 | 0.02 | 0.00 | 80 | 1010.4 |
| 20260904174539 | 86 | 138 | 2.0 | 6.0 | 0.00 | 0.02 | 0.00 | 76 | 1010.4 |
| 20260904174057 | 86 | 133 | 2.0 | 7.0 | 0.00 | 0.02 | 0.00 | 76 | 1010.3 |
| 20260904173517 | 87 | 109 | 2.0 | 6.0 | 0.00 | 0.02 | 0.00 | 75 | 1010.2 |
| 20260904173103 | 87 | 84 | 2.0 | 7.0 | 0.00 | 0.02 | 0.00 | 76 | 1010.1 |
| 20260904172517 | 88 | 95 | 1.0 | 7.0 | 0.00 | 0.02 | 0.00 | 76 | 1010.1 |
| 20260904172045 | 88 | 123 | 2.0 | 5.0 | 0.00 | 0.02 | 0.00 | 75 | 1010.0 |
| 20260904171607 | 89 | 119 | 1.0 | 4.0 | 0.00 | 0.02 | 0.00 | 74 | 1010.0 |
| 20260904171039 | 89 | 113 | 1.0 | 7.0 | 0.00 | 0.02 | 0.00 | 75 | 1010.0 |
| 20260904170600 | 89 | 121 | 1.0 | 7.0 | 0.00 | 0.02 | 0.00 | 75 | 1009.8 |
| 20260904170038 | 89 | 226 | 1.0 | 6.0 | 0.00 | 0.02 | 0.00 | 76 | 1009.8 |
| 20260904165508 | 89 | 126 | 2.0 | 5.0 | 0.00 | 0.03 | 0.00 | 74 | 1009.9 |
| 20260904165051 | 89 | 112 | 0.0 | 4.0 | 0.00 | 0.03 | 0.00 | 76 | 1009.8 |
| 20260904164525 | 89 | 118 | 1.0 | 7.0 | 0.00 | 0.03 | 0.00 | 75 | 1009.8 |
| 20260904164045 | 89 | 298 | 0.0 | 7.0 | 0.00 | 0.03 | 0.00 | 78 | 1009.8 |
| 20260904163606 | 88 | 288 | 0.0 | 4.0 | 0.00 | 0.03 | 0.00 | 75 | 1009.7 |
| 20260904163018 | 88 | 147 | 1.0 | 4.0 | 0.00 | 0.03 | 0.00 | 73 | 1009.7 |
| 20260904162557 | 88 | 136 | 0.0 | 3.0 | 0.00 | 0.03 | 0.00 | 76 | 1009.7 |
| 20260904162012 | 88 | 116 | 1.0 | 5.0 | 0.00 | 0.03 | 0.00 | 75 | 1009.7 |
| 20260904161600 | 88 | 164 | 2.0 | 5.0 | 0.00 | 0.03 | 0.00 | 76 | 1009.6 |
| 20260904161000 | 88 | 155 | 0.0 | 3.0 | 0.00 | 0.03 | 0.00 | 79 | 1009.6 |
| 20260904160525 | 87 | 244 | 1.0 | 4.0 | 0.00 | 0.03 | 0.00 | 78 | 1009.5 |
| 20260904160107 | 87 | 204 | 0.0 | 4.0 | 0.00 | 0.03 | 0.00 | 80 | 1009.5 |
| 20260904155538 | 86 | 311 | 2.0 | 4.0 | 0.00 | 0.03 | 0.00 | 78 | 1009.4 |
| 20260904155013 | 86 | 317 | 0.0 | 4.0 | 0.00 | 0.03 | 0.00 | 81 | 1009.4 |
| 20260904154532 | 85 | 306 | 1.0 | 4.0 | 0.00 | 0.03 | 0.00 | 80 | 1009.4 |
| 20260904154053 | 86 | 313 | 2.0 | 4.0 | 0.00 | 0.03 | 0.00 | 78 | 1009.4 |
| 20260904153527 | 86 | 277 | 0.0 | 3.0 | 0.00 | 0.03 | 0.00 | 79 | 1009.4 |
| 20260904153046 | 85 | 300 | 0.0 | 3.0 | 0.00 | 0.03 | 0.00 | 80 | 1009.2 |
| 20260904152504 | 85 | 301 | 1.0 | 3.0 | 0.00 | 0.03 | 0.00 | 81 | 1009.2 |
| 20260904152040 | 85 | 301 | 0.0 | 3.0 | 0.00 | 0.03 | 0.00 | 81 | 1009.2 |
| 20260904151601 | 84 | 281 | 1.0 | 4.0 | 0.00 | 0.03 | 0.00 | 80 | 1009.2 |
| 20260904151036 | 84 | 316 | 2.0 | 4.0 | 0.00 | 0.03 | 0.00 | 79 | 1009.1 |
| 20260904150510 | 84 | 321 | 0.0 | 3.0 | 0.00 | 0.03 | 0.00 | 82 | 1009.0 |
| 20260904150027 | 84 | 315 | 0.0 | 2.0 | 0.00 | 0.03 | 0.00 | 81 | 1009.0 |
| 20260904145546 | 83 | 313 | 0.0 | 3.0 | 0.00 | 0.03 | 0.00 | 82 | 1009.1 |
| 20260904145107 | 83 | 313 | 1.0 | 3.0 | 0.00 | 0.03 | 0.00 | 82 | 1009.1 |
| 20260904144517 | 83 | 314 | 1.0 | 3.0 | 0.00 | 0.03 | 0.00 | 82 | 1009.1 |
| 20260904144052 | 83 | 315 | 0.0 | 2.0 | 0.00 | 0.03 | 0.00 | 82 | 1009.1 |
| 20260904143511 | 83 | 312 | 0.0 | 2.0 | 0.00 | 0.03 | 0.00 | 83 | 1009.1 |
| 20260904143035 | 82 | 312 | 0.0 | 3.0 | 0.00 | 0.03 | 0.00 | 84 | 1009.2 |
| 20260904142551 | 82 | 293 | 1.0 | 3.0 | 0.00 | 0.03 | 0.00 | 85 | 1009.2 |
| 20260904142000 | 81 | 284 | 0.0 | 2.0 | 0.00 | 0.03 | 0.00 | 84 | 1009.2 |
| 20260904141544 | 81 | 284 | 0.0 | 2.0 | 0.00 | 0.03 | 0.00 | 85 | 1009.0 |
| 20260904141104 | 80 | 290 | 0.0 | 2.0 | 0.00 | 0.03 | 0.00 | 86 | 1009.0 |
| 20260904140522 | 80 | 290 | 0.0 | 2.0 | 0.00 | 0.03 | 0.00 | 87 | 1009.0 |
| 20260904140109 | 79 | 290 | 0.0 | 3.0 | 0.00 | 0.03 | 0.00 | 88 | 1009.0 |
| 20260904135535 | 79 | 313 | 0.0 | 3.0 | 0.00 | 0.03 | 0.00 | 90 | 1009.1 |
| 20260904135053 | 78 | 309 | 0.0 | 4.0 | 0.00 | 0.03 | 0.00 | 91 | 1009.2 |
| 20260904134530 | 78 | 309 | 1.0 | 4.0 | 0.00 | 0.03 | 0.00 | 91 | 1009.2 |
| 20260904134109 | 77 | 309 | 1.0 | 4.0 | 0.00 | 0.03 | 0.00 | 91 | 1009.1 |
| 20260904133520 | 77 | 319 | 1.0 | 4.0 | 0.00 | 0.03 | 0.00 | 93 | 1009.2 |
| 20260904133059 | 76 | 320 | 1.0 | 4.0 | 0.00 | 0.03 | 0.00 | 94 | 1009.3 |
| 20260904132509 | 76 | 309 | 0.0 | 2.0 | 0.00 | 0.03 | 0.00 | 96 | 1009.3 |
| 20260904132030 | 75 | 310 | 0.0 | 2.0 | 0.00 | 0.03 | 0.00 | 96 | 1009.2 |
| 20260904131502 | 75 | 310 | 0.0 | 3.0 | 0.00 | 0.03 | 0.00 | 97 | 1009.0 |
| 20260904131043 | 75 | 310 | 1.0 | 3.0 | 0.00 | 0.03 | 0.00 | 97 | 1008.9 |
| 20260904130601 | 75 | 188 | 0.0 | 1.0 | 0.00 | 0.03 | 0.00 | 98 | 1009.0 |
| 20260904130018 | 74 | 188 | 0.0 | 2.0 | 0.00 | 0.03 | 0.00 | 98 | 1009.0 |
| 20260904125555 | 74 | 188 | 0.0 | 2.0 | 0.00 | 0.03 | 0.00 | 98 | 1008.9 |
| 20260904125019 | 74 | 188 | 0.0 | 1.0 | 0.00 | 0.03 | 0.00 | 98 | 1008.8 |
| 20260904124502 | 73 | 188 | 0.0 | 0.0 | 0.00 | 0.03 | 0.00 | 98 | 1008.9 |
| 20260904124022 | 73 | 188 | 0.0 | 0.0 | 0.00 | 0.03 | 0.00 | 98 | 1008.7 |
| 20260904123546 | 72 | 188 | 0.0 | 0.0 | 0.00 | 0.03 | 0.00 | 98 | 1008.8 |
| 20260904123014 | 72 | 188 | 0.0 | 0.0 | 0.00 | 0.03 | 0.00 | 98 | 1008.7 |
| 20260904122536 | 71 | 188 | 0.0 | 0.0 | 0.00 | 0.03 | 0.00 | 98 | 1008.6 |
| 20260904122102 | 71 | 188 | 0.0 | 0.0 | 0.00 | 0.03 | 0.00 | 98 | 1008.6 |
| 20260904121529 | 70 | 188 | 0.0 | 0.0 | 0.00 | 0.03 | 0.00 | 97 | 1008.4 |
| 20260904121049 | 70 | 188 | 0.0 | 0.0 | 0.00 | 0.03 | 0.00 | 97 | 1008.4 |
| 20260904120502 | 70 | 188 | 0.0 | 0.0 | 0.00 | 0.03 | 0.00 | 97 | 1008.4 |
| 20260904120050 | 70 | 188 | 0.0 | 0.0 | 0.00 | 0.03 | 0.00 | 96 | 1008.3 |
| 20260904115515 | 70 | 188 | 0.0 | 0.0 | 0.00 | 0.03 | 0.00 | 96 | 1008.3 |
| 20260904115042 | 70 | 188 | 0.0 | 0.0 | 0.00 | 0.03 | 0.00 | 96 | 1008.2 |
| 20260904114502 | 71 | 188 | 0.0 | 0.0 | 0.00 | 0.03 | 0.00 | 96 | 1008.2 |
| 20260904114024 | 71 | 188 | 0.0 | 0.0 | 0.00 | 0.03 | 0.00 | 96 | 1008.1 |
| 20260904113601 | 71 | 188 | 0.0 | 0.0 | 0.00 | 0.03 | 0.00 | 96 | 1008.1 |
| 20260904113011 | 71 | 188 | 0.0 | 0.0 | 0.00 | 0.03 | 0.00 | 97 | 1008.1 |
| 20260904112530 | 71 | 188 | 0.0 | 0.0 | 0.00 | 0.03 | 0.00 | 96 | 1008.0 |
| 20260904112051 | 71 | 188 | 0.0 | 0.0 | 0.00 | 0.03 | 0.00 | 97 | 1008.1 |
| 20260904111503 | 72 | 188 | 0.0 | 0.0 | 0.00 | 0.03 | 0.00 | 97 | 1008.1 |
| 20260904111036 | 72 | 188 | 0.0 | 0.0 | 0.00 | 0.03 | 0.00 | 97 | 1008.0 |
| 20260904110605 | 72 | 188 | 0.0 | 0.0 | 0.00 | 0.03 | 0.00 | 97 | 1008.2 |
| 20260904110030 | 72 | 188 | 0.0 | 0.0 | 0.00 | 0.03 | 0.00 | 97 | 1008.1 |
| 20260904105601 | 72 | 188 | 0.0 | 0.0 | 0.00 | 0.03 | 0.00 | 96 | 1008.1 |
| 20260904105011 | 72 | 188 | 0.0 | 0.0 | 0.00 | 0.03 | 0.00 | 97 | 1008.1 |
| 20260904104545 | 72 | 188 | 0.0 | 0.0 | 0.00 | 0.03 | 0.00 | 97 | 1008.1 |
| 20260904104020 | 72 | 182 | 0.0 | 0.0 | 0.00 | 0.03 | 0.00 | 96 | 1008.0 |
| 20260904103555 | 72 | 182 | 0.0 | 0.0 | 0.00 | 0.03 | 0.00 | 97 | 1007.9 |
| 20260904103018 | 71 | 182 | 0.0 | 0.0 | 0.00 | 0.03 | 0.00 | 97 | 1008.0 |
| 20260904102536 | 72 | 182 | 0.0 | 0.0 | 0.00 | 0.03 | 0.00 | 96 | 1008.1 |
| 20260904102054 | 72 | 182 | 0.0 | 0.0 | 0.00 | 0.03 | 0.00 | 96 | 1008.0 |
| 20260904101505 | 72 | 182 | 0.0 | 0.0 | 0.00 | 0.03 | 0.00 | 96 | 1008.0 |
| 20260904101048 | 72 | 182 | 0.0 | 0.0 | 0.00 | 0.03 | 0.00 | 97 | 1008.0 |
| 20260904100523 | 72 | 182 | 0.0 | 0.0 | 0.00 | 0.03 | 0.00 | 97 | 1007.9 |
| 20260904100110 | 72 | 182 | 0.0 | 0.0 | 0.00 | 0.03 | 0.00 | 97 | 1007.8 |
| 20260904095521 | 71 | 182 | 0.0 | 0.0 | 0.00 | 0.03 | 0.00 | 96 | 1007.8 |
| 20260904095038 | 71 | 182 | 0.0 | 0.0 | 0.00 | 0.03 | 0.00 | 96 | 1007.9 |
| 20260904094530 | 71 | 182 | 0.0 | 0.0 | 0.00 | 0.03 | 0.00 | 96 | 1007.9 |
| 20260904094034 | 71 | 182 | 0.0 | 0.0 | 0.00 | 0.03 | 0.00 | 96 | 1007.8 |
| 20260904093603 | 71 | 182 | 0.0 | 0.0 | 0.00 | 0.03 | 0.00 | 96 | 1007.8 |
| 20260904093017 | 72 | 182 | 0.0 | 0.0 | 0.00 | 0.03 | 0.00 | 96 | 1007.7 |
| 20260904092535 | 72 | 182 | 0.0 | 0.0 | 0.00 | 0.03 | 0.00 | 96 | 1007.7 |
| 20260904092101 | 72 | 182 | 0.0 | 0.0 | 0.00 | 0.03 | 0.00 | 96 | 1007.7 |
| 20260904091515 | 72 | 182 | 0.0 | 0.0 | 0.00 | 0.03 | 0.00 | 96 | 1007.6 |
| 20260904091053 | 72 | 182 | 0.0 | 0.0 | 0.00 | 0.03 | 0.00 | 96 | 1007.6 |
| 20260904090529 | 72 | 182 | 0.0 | 0.0 | 0.00 | 0.03 | 0.00 | 96 | 1007.6 |
| 20260904090105 | 72 | 182 | 0.0 | 0.0 | 0.00 | 0.03 | 0.00 | 95 | 1007.7 |
| 20260904085512 | 72 | 182 | 0.0 | 0.0 | 0.00 | 0.03 | 0.00 | 95 | 1007.6 |
| 20260904085035 | 72 | 182 | 0.0 | 0.0 | 0.00 | 0.03 | 0.00 | 95 | 1007.6 |
| 20260904084601 | 72 | 182 | 0.0 | 0.0 | 0.00 | 0.03 | 0.00 | 95 | 1007.6 |
| 20260904084029 | 72 | 182 | 0.0 | 0.0 | 0.00 | 0.03 | 0.00 | 95 | 1007.6 |
| 20260904083559 | 72 | 182 | 0.0 | 0.0 | 0.00 | 0.03 | 0.00 | 95 | 1007.5 |
| 20260904083105 | 72 | 182 | 0.0 | 0.0 | 0.00 | 0.03 | 0.00 | 95 | 1007.4 |
| 20260904082511 | 72 | 182 | 0.0 | 0.0 | 0.00 | 0.03 | 0.00 | 95 | 1007.4 |
| 20260904082055 | 72 | 182 | 0.0 | 0.0 | 0.00 | 0.03 | 0.00 | 95 | 1007.5 |
| 20260904081533 | 72 | 182 | 0.0 | 0.0 | 0.00 | 0.03 | 0.00 | 94 | 1007.4 |
| 20260904081011 | 72 | 182 | 0.0 | 0.0 | 0.00 | 0.03 | 0.00 | 94 | 1007.4 |
| 20260904080536 | 72 | 182 | 0.0 | 0.0 | 0.00 | 0.03 | 0.00 | 95 | 1007.3 |
| 20260904080009 | 72 | 182 | 0.0 | 0.0 | 0.00 | 0.03 | 0.00 | 94 | 1007.4 |
| 20260904075556 | 73 | 182 | 0.0 | 0.0 | 0.00 | 0.03 | 0.00 | 94 | 1007.4 |
| 20260904075012 | 73 | 182 | 0.0 | 0.0 | 0.00 | 0.03 | 0.00 | 94 | 1007.3 |
| 20260904074538 | 73 | 182 | 0.0 | 0.0 | 0.00 | 0.03 | 0.00 | 94 | 1007.3 |
| 20260904074107 | 73 | 182 | 0.0 | 0.0 | 0.00 | 0.03 | 0.00 | 94 | 1007.3 |
| 20260904073542 | 73 | 182 | 0.0 | 0.0 | 0.00 | 0.03 | 0.00 | 94 | 1007.3 |
| 20260904073002 | 73 | 182 | 0.0 | 0.0 | 0.00 | 0.03 | 0.00 | 93 | 1007.4 |
| 20260904072522 | 73 | 182 | 0.0 | 0.0 | 0.00 | 0.03 | 0.00 | 93 | 1007.4 |
| 20260904072007 | 74 | 182 | 0.0 | 0.0 | 0.00 | 0.03 | 0.00 | 93 | 1007.4 |
| 20260904071501 | 74 | 182 | 0.0 | 0.0 | 0.00 | 0.03 | 0.00 | 93 | 1007.4 |
| 20260904071027 | 74 | 182 | 0.0 | 0.0 | 0.00 | 0.03 | 0.00 | 93 | 1007.3 |
| 20260904070506 | 74 | 182 | 0.0 | 0.0 | 0.00 | 0.03 | 0.00 | 93 | 1007.4 |
| 20260904070159 | 74 | 182 | 0.0 | 0.0 | 0.00 | 0.03 | 0.00 | 93 | 1007.4 |
| 20260904065609 | 74 | 182 | 0.0 | 1.0 | 0.00 | 0.03 | 0.00 | 93 | 1007.4 |
| 20260904065046 | 75 | 182 | 0.0 | 1.0 | 0.00 | 0.03 | 0.00 | 93 | 1007.5 |
| 20260904064541 | 75 | 182 | 0.0 | 0.0 | 0.00 | 0.03 | 0.00 | 93 | 1007.4 |
| 20260904064019 | 75 | 182 | 0.0 | 0.0 | 0.00 | 0.03 | 0.00 | 93 | 1007.4 |
| 20260904063543 | 75 | 182 | 0.0 | 0.0 | 0.00 | 0.03 | 0.00 | 92 | 1007.5 |
| 20260904063027 | 75 | 182 | 0.0 | 0.0 | 0.00 | 0.03 | 0.00 | 92 | 1007.5 |
| 20260904062536 | 75 | 182 | 0.0 | 0.0 | 0.00 | 0.03 | 0.00 | 92 | 1007.4 |
| 20260904062055 | 75 | 182 | 0.0 | 0.0 | 0.00 | 0.03 | 0.00 | 92 | 1007.5 |
| 20260904061528 | 75 | 182 | 0.0 | 0.0 | 0.00 | 0.03 | 0.00 | 92 | 1007.5 |
| 20260904061050 | 76 | 182 | 0.0 | 0.0 | 0.00 | 0.03 | 0.00 | 92 | 1007.5 |
| 20260904060506 | 76 | 182 | 0.0 | 2.0 | 0.00 | 0.03 | 0.00 | 92 | 1007.5 |
| 20260904060045 | 76 | 182 | 0.0 | 2.0 | 0.00 | 0.03 | 0.00 | 92 | 1007.5 |
| 20260904055518 | 76 | 182 | 0.0 | 0.0 | 0.00 | 0.03 | 0.00 | 92 | 1007.5 |
| 20260904055007 | 76 | 182 | 0.0 | 0.0 | 0.00 | 0.03 | 0.00 | 92 | 1007.5 |
| 20260904054546 | 76 | 182 | 0.0 | 0.0 | 0.00 | 0.03 | 0.00 | 92 | 1007.6 |
| 20260904054056 | 76 | 182 | 0.0 | 0.0 | 0.00 | 0.03 | 0.00 | 92 | 1007.5 |
| 20260904053535 | 76 | 182 | 0.0 | 0.0 | 0.00 | 0.03 | 0.00 | 92 | 1007.4 |
| 20260904053012 | 76 | 182 | 0.0 | 2.0 | 0.00 | 0.03 | 0.00 | 92 | 1007.5 |
| 20260904052544 | 76 | 182 | 0.0 | 2.0 | 0.00 | 0.03 | 0.00 | 92 | 1007.4 |
| 20260904052020 | 75 | 182 | 0.0 | 2.0 | 0.00 | 0.03 | 0.00 | 92 | 1007.3 |
| 20260904051543 | 75 | 182 | 0.0 | 1.0 | 0.00 | 0.03 | 0.00 | 92 | 1007.4 |
| 20260904051100 | 75 | 182 | 0.0 | 2.0 | 0.00 | 0.03 | 0.00 | 92 | 1007.4 |
| 20260904050534 | 75 | 181 | 0.0 | 2.0 | 0.00 | 0.03 | 0.00 | 92 | 1007.3 |
| 20260904050057 | 75 | 181 | 0.0 | 0.0 | 0.00 | 0.03 | 0.00 | 91 | 1007.3 |
| 20260904045521 | 75 | 181 | 0.0 | 0.0 | 0.00 | 0.03 | 0.03 | 91 | 1007.3 |
| 20260904045048 | 76 | 181 | 0.0 | 0.0 | 0.00 | 0.03 | 0.03 | 91 | 1007.2 |
| 20260904044609 | 76 | 181 | 0.0 | 1.0 | 0.00 | 0.03 | 0.03 | 91 | 1007.3 |
| 20260904044032 | 76 | 181 | 0.0 | 3.0 | 0.00 | 0.03 | 0.03 | 90 | 1007.2 |
| 20260904043605 | 76 | 181 | 0.0 | 3.0 | 0.00 | 0.03 | 0.03 | 90 | 1007.3 |
| 20260904043037 | 76 | 188 | 0.0 | 2.0 | 0.00 | 0.03 | 0.03 | 90 | 1007.3 |
| 20260904042555 | 76 | 188 | 0.0 | 2.0 | 0.00 | 0.03 | 0.03 | 90 | 1007.3 |
| 20260904042001 | 76 | 188 | 0.0 | 2.0 | 0.00 | 0.03 | 0.03 | 90 | 1007.2 |
| 20260904041546 | 76 | 188 | 0.0 | 1.0 | 0.00 | 0.03 | 0.03 | 89 | 1007.2 |
| 20260904041108 | 76 | 188 | 0.0 | 2.0 | 0.00 | 0.03 | 0.03 | 89 | 1007.2 |
| 20260904040516 | 77 | 188 | 0.0 | 2.0 | 0.00 | 0.03 | 0.03 | 89 | 1007.3 |
| 20260904040109 | 77 | 188 | 0.0 | 1.0 | 0.00 | 0.03 | 0.03 | 88 | 1007.3 |
| 20260904035536 | 77 | 188 | 0.0 | 1.0 | 0.00 | 0.03 | 0.03 | 88 | 1007.3 |
| 20260904035057 | 77 | 188 | 0.0 | 0.0 | 0.00 | 0.03 | 0.03 | 88 | 1007.3 |
| 20260904034503 | 77 | 188 | 0.0 | 1.0 | 0.00 | 0.03 | 0.03 | 87 | 1007.3 |
| 20260904034039 | 78 | 188 | 0.0 | 1.0 | 0.00 | 0.03 | 0.03 | 87 | 1007.2 |
| 20260904033608 | 78 | 188 | 0.0 | 1.0 | 0.00 | 0.03 | 0.03 | 87 | 1007.3 |
| 20260904033018 | 78 | 188 | 0.0 | 2.0 | 0.00 | 0.03 | 0.03 | 87 | 1007.3 |
| 20260904032537 | 78 | 188 | 0.0 | 2.0 | 0.00 | 0.03 | 0.03 | 87 | 1007.3 |